KZR887 UAAA-UTDD

Flight info

Callsign KZR887
Flight time N/A
Altitude 32000
Route LAKEL1B LAKEL L135 VADER B350 JD JD6A
Aircraft A21N/M-SDE2E3FGHIRWXY/LB1

Departure

Time 2026-05-06 12:18
Airport Almaty International Airport (UAAA)

Arrival

Time N/A
Airport Dushanbe International Airport (UTDD)
Time Latitude Longitude Altitude Speed Heading
2026-05-06 11:59 43.34980 77.01285 2229 ft 0 kts 246°
2026-05-06 12:07 43.34981 77.01290 2229 ft 2 kts 246°
2026-05-06 12:07 43.34988 77.01311 2224 ft 2 kts 246°
2026-05-06 12:08 43.34995 77.01331 2224 ft 2 kts 246°
2026-05-06 12:08 43.35001 77.01352 2224 ft 2 kts 246°
2026-05-06 12:08 43.35008 77.01372 2229 ft 2 kts 245°
2026-05-06 12:08 43.35017 77.01391 2224 ft 2 kts 210°
2026-05-06 12:09 43.35032 77.01399 2227 ft 2 kts 180°
2026-05-06 12:09 43.35044 77.01398 2225 ft 0 kts 156°
2026-05-06 12:12 43.35041 77.01399 2225 ft 2 kts 156°
2026-05-06 12:12 43.35031 77.01405 2227 ft 5 kts 156°
2026-05-06 12:13 43.34986 77.01433 2228 ft 9 kts 156°
2026-05-06 12:13 43.34926 77.01469 2227 ft 10 kts 156°
2026-05-06 12:13 43.34864 77.01506 2229 ft 10 kts 158°
2026-05-06 12:13 43.34798 77.01489 2225 ft 10 kts 198°
2026-05-06 12:14 43.34730 77.01454 2228 ft 11 kts 200°
2026-05-06 12:14 43.34655 77.01455 2227 ft 11 kts 162°
2026-05-06 12:14 43.34575 77.01473 2228 ft 12 kts 161°
2026-05-06 12:14 43.34496 77.01520 2227 ft 13 kts 155°
2026-05-06 12:15 43.34413 77.01573 2229 ft 14 kts 155°
2026-05-06 12:15 43.34324 77.01629 2227 ft 14 kts 155°
2026-05-06 12:15 43.34253 77.01674 2229 ft 0 kts 155°
2026-05-06 12:16 43.34244 77.01679 2227 ft 4 kts 155°
2026-05-06 12:16 43.34203 77.01705 2228 ft 9 kts 155°
2026-05-06 12:16 43.34145 77.01751 2226 ft 8 kts 129°
2026-05-06 12:17 43.34161 77.01819 2227 ft 8 kts 56°
2026-05-06 12:17 43.34233 77.01964 2227 ft 46 kts 55°
2026-05-06 12:17 43.34548 77.02583 2231 ft 112 kts 53°
2026-05-06 12:17 43.35126 77.03643 2313 ft 150 kts 49°
2026-05-06 12:18 43.35791 77.04845 2909 ft 161 kts 53°
2026-05-06 12:18 43.36438 77.06126 3609 ft 170 kts 57°
2026-05-06 12:18 43.37147 77.07569 4170 ft 193 kts 57°
2026-05-06 12:18 43.37941 77.09161 4795 ft 211 kts 56°
2026-05-06 12:19 43.38827 77.10902 5316 ft 233 kts 55°
2026-05-06 12:19 43.39826 77.12829 5801 ft 261 kts 54°
2026-05-06 12:19 43.40909 77.14902 6693 ft 270 kts 53°
2026-05-06 12:19 43.42308 77.16670 7450 ft 282 kts 25°
2026-05-06 12:20 43.44234 77.17160 8262 ft 287 kts 352°
2026-05-06 12:20 43.46166 77.16301 8821 ft 304 kts 334°
2026-05-06 12:20 43.48143 77.14935 8975 ft 332 kts 330°
2026-05-06 12:20 43.50249 77.13322 9003 ft 360 kts 329°
2026-05-06 12:21 43.52364 77.11273 8996 ft 385 kts 313°
2026-05-06 12:21 43.53836 77.08112 9032 ft 404 kts 289°
2026-05-06 12:21 43.54378 77.04339 9961 ft 397 kts 277°
2026-05-06 12:21 43.54703 77.00615 11140 ft 383 kts 275°
2026-05-06 12:22 43.55135 76.97086 12524 ft 365 kts 284°
2026-05-06 12:22 43.56029 76.93880 13760 ft 356 kts 297°
2026-05-06 12:22 43.57481 76.91116 14511 ft 359 kts 311°
2026-05-06 12:22 43.59318 76.88770 15176 ft 362 kts 316°
2026-05-06 12:23 43.61143 76.86361 15824 ft 364 kts 313°
2026-05-06 12:23 43.62902 76.83842 16452 ft 367 kts 311°
2026-05-06 12:23 43.64648 76.81251 17067 ft 370 kts 311°
2026-05-06 12:23 43.66408 76.78624 17677 ft 373 kts 311°
2026-05-06 12:24 43.68186 76.75994 18284 ft 377 kts 311°
2026-05-06 12:24 43.69978 76.73326 18807 ft 379 kts 308°
2026-05-06 12:24 43.71390 76.70261 19313 ft 380 kts 293°
2026-05-06 12:24 43.72166 76.66771 19823 ft 381 kts 278°
2026-05-06 12:25 43.72222 76.63061 20328 ft 383 kts 262°
2026-05-06 12:25 43.71554 76.59497 20799 ft 386 kts 247°
2026-05-06 12:25 43.70183 76.56310 21243 ft 389 kts 230°
2026-05-06 12:25 43.68087 76.53931 21653 ft 395 kts 210°
2026-05-06 12:26 43.65482 76.52688 22033 ft 401 kts 189°
2026-05-06 12:26 43.62680 76.52785 22408 ft 408 kts 169°
2026-05-06 12:26 43.59968 76.54006 22767 ft 413 kts 163°
2026-05-06 12:26 43.57201 76.55069 23151 ft 414 kts 168°
2026-05-06 12:27 43.54439 76.56245 23533 ft 418 kts 159°
2026-05-06 12:27 43.51832 76.58072 23868 ft 423 kts 149°
2026-05-06 12:27 43.49447 76.60452 24200 ft 426 kts 143°
2026-05-06 12:27 43.47104 76.62967 24543 ft 428 kts 144°
2026-05-06 12:28 43.44740 76.65469 24885 ft 429 kts 144°
2026-05-06 12:28 43.42362 76.67971 25229 ft 431 kts 144°
2026-05-06 12:28 43.39976 76.70479 25571 ft 433 kts 144°
2026-05-06 12:28 43.37579 76.73002 25920 ft 435 kts 144°
2026-05-06 12:29 43.35175 76.75532 26253 ft 437 kts 144°
2026-05-06 12:29 43.32760 76.78081 26585 ft 438 kts 144°
2026-05-06 12:29 43.30339 76.80638 26904 ft 440 kts 144°
2026-05-06 12:29 43.27895 76.83197 27228 ft 442 kts 147°
2026-05-06 12:30 43.25231 76.85252 27528 ft 440 kts 160°
2026-05-06 12:30 43.22307 76.86393 27823 ft 437 kts 174°
2026-05-06 12:30 43.19283 76.86548 28120 ft 435 kts 187°
2026-05-06 12:30 43.16327 76.85720 28431 ft 433 kts 201°
2026-05-06 12:31 43.13605 76.83984 28740 ft 432 kts 213°
2026-05-06 12:31 43.11169 76.81588 29033 ft 433 kts 218°
2026-05-06 12:31 43.08753 76.79115 29340 ft 434 kts 218°
2026-05-06 12:31 43.06323 76.76646 29647 ft 436 kts 218°
2026-05-06 12:32 43.03880 76.74171 29949 ft 438 kts 218°
2026-05-06 12:32 43.01427 76.71687 30238 ft 439 kts 218°
2026-05-06 12:32 42.98968 76.69195 30458 ft 441 kts 218°
2026-05-06 12:32 42.96500 76.66692 30683 ft 443 kts 218°
2026-05-06 12:33 42.93994 76.64151 30916 ft 444 kts 218°
2026-05-06 12:33 42.91514 76.61635 31124 ft 444 kts 218°
2026-05-06 12:33 42.89035 76.59120 31407 ft 443 kts 218°
2026-05-06 12:33 42.86570 76.56619 31700 ft 442 kts 218°
2026-05-06 12:34 42.84099 76.54120 31977 ft 442 kts 218°
2026-05-06 12:34 42.81633 76.51629 32173 ft 443 kts 218°
2026-05-06 12:34 42.76632 76.46579 32224 ft 452 kts 218°
2026-05-06 12:35 42.71543 76.41444 32290 ft 459 kts 218°
2026-05-06 12:35 42.66352 76.36217 32201 ft 466 kts 217°
2026-05-06 12:36 42.63763 76.33622 32209 ft 455 kts 217°
2026-05-06 12:36 42.61267 76.31128 32202 ft 437 kts 217°
2026-05-06 12:36 42.56464 76.26331 32183 ft 425 kts 217°
2026-05-06 12:37 42.51713 76.21581 32162 ft 425 kts 217°
2026-05-06 12:37 42.46949 76.16828 32153 ft 425 kts 217°
2026-05-06 12:38 42.42506 76.11578 32161 ft 424 kts 231°
2026-05-06 12:38 42.39108 76.05066 32161 ft 424 kts 236°
2026-05-06 12:39 42.35771 75.98503 32162 ft 424 kts 236°
2026-05-06 12:39 42.32416 75.91940 32164 ft 424 kts 236°
2026-05-06 12:40 42.29062 75.85386 32165 ft 424 kts 236°
2026-05-06 12:40 42.25704 75.78835 32161 ft 424 kts 236°
2026-05-06 12:41 42.22348 75.72280 32157 ft 424 kts 236°
2026-05-06 12:41 42.18984 75.65739 32158 ft 425 kts 236°
2026-05-06 12:42 42.15587 75.59163 32155 ft 425 kts 236°
2026-05-06 12:42 42.12211 75.52614 32146 ft 426 kts 236°
2026-05-06 12:43 42.08826 75.46071 32153 ft 426 kts 236°
2026-05-06 12:43 42.05423 75.39522 32154 ft 427 kts 236°
2026-05-06 12:44 42.02021 75.32977 32176 ft 428 kts 236°
2026-05-06 12:44 41.99181 75.27524 32186 ft 428 kts 236°
2026-05-06 12:45 41.95760 75.20971 32183 ft 428 kts 236°
2026-05-06 12:46 41.90622 75.11147 32201 ft 429 kts 236°
2026-05-06 12:46 41.87176 75.04588 32211 ft 430 kts 236°
2026-05-06 12:47 41.83724 74.98014 32214 ft 436 kts 236°
2026-05-06 12:47 41.80143 74.91213 32209 ft 450 kts 236°
2026-05-06 12:48 41.76481 74.84271 32199 ft 461 kts 236°
2026-05-06 12:48 41.72753 74.77232 32194 ft 464 kts 236°
2026-05-06 12:49 41.69005 74.70181 32184 ft 465 kts 236°
2026-05-06 12:49 41.65258 74.63129 32183 ft 466 kts 236°
2026-05-06 12:50 41.61503 74.56073 32178 ft 466 kts 236°
2026-05-06 12:50 41.57731 74.49022 32179 ft 467 kts 236°
2026-05-06 12:51 41.53959 74.41965 32183 ft 467 kts 236°
2026-05-06 12:51 41.50176 74.34918 32179 ft 467 kts 236°
2026-05-06 12:52 41.46380 74.27869 32181 ft 468 kts 236°
2026-05-06 12:52 41.42589 74.20814 32187 ft 468 kts 236°
2026-05-06 12:53 41.38791 74.13765 32192 ft 469 kts 236°
2026-05-06 12:53 41.34974 74.06721 32197 ft 469 kts 236°
2026-05-06 12:54 41.31151 73.99689 32196 ft 469 kts 236°
2026-05-06 12:54 41.27300 73.92599 32202 ft 470 kts 236°
2026-05-06 12:55 41.23477 73.85567 32205 ft 470 kts 236°
2026-05-06 12:55 41.20590 73.80269 32208 ft 470 kts 237°
2026-05-06 12:56 41.16758 73.73233 32200 ft 470 kts 237°
2026-05-06 12:56 41.12920 73.66205 32202 ft 471 kts 236°
2026-05-06 12:57 41.09074 73.59184 32187 ft 471 kts 237°
2026-05-06 12:57 41.05216 73.52165 32178 ft 471 kts 237°
2026-05-06 12:58 41.01348 73.45141 32164 ft 472 kts 237°
2026-05-06 12:58 40.97478 73.38124 32153 ft 472 kts 237°
2026-05-06 12:59 40.93443 73.31254 32137 ft 474 kts 233°
2026-05-06 12:59 40.89155 73.24628 32132 ft 475 kts 232°
2026-05-06 13:00 40.84823 73.18024 32123 ft 475 kts 232°
2026-05-06 13:00 40.80549 73.11355 32105 ft 476 kts 233°
2026-05-06 13:01 40.76299 73.04655 32087 ft 476 kts 233°
2026-05-06 13:01 40.72031 72.97961 32073 ft 477 kts 233°
2026-05-06 13:02 40.67712 72.91229 32060 ft 478 kts 233°
2026-05-06 13:02 40.63407 72.84535 32054 ft 479 kts 233°
2026-05-06 13:03 40.59318 72.77646 32050 ft 476 kts 241°
2026-05-06 13:03 40.55673 72.70373 32047 ft 477 kts 241°
2026-05-06 13:04 40.52018 72.63092 32052 ft 477 kts 241°
2026-05-06 13:04 40.48339 72.55811 32057 ft 479 kts 241°
2026-05-06 13:05 40.44644 72.48526 32062 ft 480 kts 241°
2026-05-06 13:05 40.40946 72.41236 32067 ft 481 kts 241°
2026-05-06 13:06 40.37233 72.33930 32070 ft 481 kts 241°
2026-05-06 13:06 40.33506 72.26622 32071 ft 482 kts 242°
2026-05-06 13:07 40.29770 72.19308 32082 ft 483 kts 241°
2026-05-06 13:07 40.26024 72.11998 32067 ft 484 kts 241°
2026-05-06 13:08 40.22115 72.04800 32055 ft 487 kts 238°
2026-05-06 13:08 40.17890 71.97849 32059 ft 489 kts 236°
2026-05-06 13:09 40.13604 71.90948 32063 ft 488 kts 237°
2026-05-06 13:09 40.09381 71.83976 32082 ft 489 kts 237°
2026-05-06 13:10 40.05197 71.76972 32109 ft 489 kts 237°
2026-05-06 13:10 40.00971 71.69921 32152 ft 490 kts 237°
2026-05-06 13:11 39.96775 71.62971 32184 ft 491 kts 237°
2026-05-06 13:11 39.92513 71.55955 32192 ft 491 kts 237°
2026-05-06 13:12 39.88271 71.48979 32204 ft 491 kts 237°
2026-05-06 13:12 39.84031 71.42003 32211 ft 491 kts 237°
2026-05-06 13:13 39.79789 71.35041 32219 ft 491 kts 237°
2026-05-06 13:13 39.75538 71.28090 32222 ft 491 kts 236°
2026-05-06 13:14 39.71285 71.21146 32221 ft 491 kts 237°
2026-05-06 13:14 39.67031 71.14205 32218 ft 491 kts 237°
2026-05-06 13:15 39.62768 71.07278 32242 ft 491 kts 237°
2026-05-06 13:15 39.58508 71.00369 32241 ft 490 kts 236°
2026-05-06 13:16 39.54252 70.93470 32250 ft 489 kts 236°
2026-05-06 13:16 39.50001 70.86603 32256 ft 488 kts 236°
2026-05-06 13:17 39.45762 70.79753 32251 ft 487 kts 236°
2026-05-06 13:17 39.42210 70.74034 32253 ft 486 kts 236°
2026-05-06 13:18 39.37262 70.66146 32247 ft 485 kts 236°
2026-05-06 13:18 39.33686 70.60473 32242 ft 485 kts 236°
2026-05-06 13:19 39.29432 70.53731 32236 ft 485 kts 236°
2026-05-06 13:19 39.25188 70.46986 32216 ft 483 kts 236°
2026-05-06 13:20 39.21016 70.40203 32220 ft 483 kts 237°
2026-05-06 13:20 39.16934 70.33364 32197 ft 480 kts 237°
2026-05-06 13:21 39.12863 70.26550 32183 ft 481 kts 237°
2026-05-06 13:21 39.08808 70.19859 31973 ft 462 kts 237°
2026-05-06 13:21 39.06851 70.16652 31718 ft 450 kts 237°
2026-05-06 13:22 39.04938 70.13513 31455 ft 441 kts 237°
2026-05-06 13:22 39.03066 70.10443 31194 ft 431 kts 237°
2026-05-06 13:22 39.01231 70.07439 30948 ft 425 kts 237°
2026-05-06 13:22 38.99420 70.04461 30588 ft 422 kts 237°
2026-05-06 13:23 38.97616 70.01498 30164 ft 419 kts 236°
2026-05-06 13:23 38.95824 69.98562 29610 ft 414 kts 236°
2026-05-06 13:23 38.94052 69.95653 29067 ft 413 kts 236°
2026-05-06 13:23 38.92283 69.92750 28524 ft 410 kts 236°
2026-05-06 13:24 38.90528 69.89880 27994 ft 408 kts 236°
2026-05-06 13:24 38.88779 69.87027 27478 ft 405 kts 235°
2026-05-06 13:24 38.87043 69.84192 26974 ft 403 kts 235°
2026-05-06 13:24 38.85310 69.81368 26465 ft 401 kts 235°
2026-05-06 13:25 38.83589 69.78565 25975 ft 398 kts 234°
2026-05-06 13:25 38.81858 69.75746 25488 ft 397 kts 234°
2026-05-06 13:25 38.80155 69.72975 25014 ft 394 kts 234°
2026-05-06 13:25 38.78461 69.70224 24544 ft 392 kts 234°
2026-05-06 13:26 38.76776 69.67490 24080 ft 388 kts 234°
2026-05-06 13:26 38.75120 69.64812 23622 ft 380 kts 234°
2026-05-06 13:26 38.73497 69.62190 23084 ft 371 kts 234°
2026-05-06 13:26 38.71908 69.59629 22555 ft 364 kts 234°
2026-05-06 13:27 38.70348 69.57110 22037 ft 359 kts 234°
2026-05-06 13:27 38.68805 69.54615 21529 ft 356 kts 234°
2026-05-06 13:27 38.67273 69.52139 21022 ft 354 kts 233°
2026-05-06 13:27 38.65752 69.49681 20523 ft 352 kts 233°
2026-05-06 13:28 38.64233 69.47235 20057 ft 350 kts 233°
2026-05-06 13:28 38.62727 69.44806 19566 ft 348 kts 233°
2026-05-06 13:28 38.61227 69.42390 19101 ft 346 kts 233°
2026-05-06 13:28 38.59732 69.39986 18625 ft 344 kts 233°
2026-05-06 13:29 38.58248 69.37597 18144 ft 343 kts 233°
2026-05-06 13:29 38.56774 69.35215 17625 ft 340 kts 235°
2026-05-06 13:29 38.55556 69.32654 17111 ft 336 kts 246°
2026-05-06 13:29 38.54750 69.29872 16601 ft 332 kts 257°
2026-05-06 13:30 38.54367 69.26987 16102 ft 328 kts 268°
2026-05-06 13:30 38.54313 69.24060 15375 ft 330 kts 271°
2026-05-06 13:30 38.54289 69.21121 14660 ft 331 kts 271°
2026-05-06 13:30 38.54258 69.18207 13960 ft 324 kts 270°
2026-05-06 13:31 38.54224 69.15425 13215 ft 317 kts 270°
2026-05-06 13:31 38.54190 69.12642 12458 ft 311 kts 270°
2026-05-06 13:31 38.54158 69.09906 11716 ft 306 kts 270°
2026-05-06 13:31 38.54156 69.07201 11209 ft 305 kts 271°
2026-05-06 13:32 38.54173 69.04489 10732 ft 305 kts 271°
2026-05-06 13:32 38.54196 69.01786 10263 ft 304 kts 271°
2026-05-06 13:32 38.54219 68.99091 9787 ft 304 kts 271°
2026-05-06 13:32 38.54238 68.96398 9279 ft 303 kts 271°
2026-05-06 13:33 38.54254 68.93678 8777 ft 302 kts 271°
2026-05-06 13:33 38.54266 68.91003 8285 ft 301 kts 270°
2026-05-06 13:33 38.54277 68.88333 7798 ft 300 kts 270°
2026-05-06 13:33 38.54287 68.85682 7414 ft 295 kts 270°
2026-05-06 13:34 38.54292 68.83097 7178 ft 288 kts 270°
2026-05-06 13:34 38.54296 68.80552 6942 ft 286 kts 270°
2026-05-06 13:34 38.54302 68.78010 6711 ft 285 kts 270°
2026-05-06 13:34 38.54311 68.75488 6480 ft 282 kts 270°
2026-05-06 13:35 38.54319 68.72977 6236 ft 283 kts 270°
2026-05-06 13:35 38.54327 68.70468 6092 ft 282 kts 270°
2026-05-06 13:35 38.54333 68.67961 5968 ft 282 kts 270°
2026-05-06 13:35 38.54339 68.65460 5846 ft 279 kts 270°
2026-05-06 13:36 38.54343 68.63034 5721 ft 268 kts 270°
2026-05-06 13:36 38.54347 68.60699 5599 ft 258 kts 270°
2026-05-06 13:36 38.54350 68.58456 5476 ft 247 kts 269°
2026-05-06 13:36 38.54352 68.56291 5373 ft 241 kts 270°
2026-05-06 13:37 38.54353 68.54170 5255 ft 237 kts 269°
2026-05-06 13:37 38.54354 68.52080 5137 ft 235 kts 269°
2026-05-06 13:37 38.54355 68.50002 5019 ft 234 kts 269°
2026-05-06 13:37 38.54231 68.47945 4899 ft 232 kts 251°
2026-05-06 13:38 38.53329 68.46294 4787 ft 229 kts 215°
2026-05-06 13:38 38.51843 68.45651 4652 ft 228 kts 179°
2026-05-06 13:38 38.50392 68.46221 4536 ft 213 kts 145°
2026-05-06 13:38 38.49501 68.47606 4413 ft 197 kts 113°
2026-05-06 13:39 38.49314 68.49242 4397 ft 177 kts 83°
2026-05-06 13:39 38.49642 68.50699 4446 ft 165 kts 71°
2026-05-06 13:39 38.50012 68.52058 4451 ft 160 kts 71°
2026-05-06 13:39 38.50373 68.53386 4455 ft 158 kts 71°
2026-05-06 13:40 38.50735 68.54726 4446 ft 157 kts 71°
2026-05-06 13:40 38.51091 68.56044 4448 ft 157 kts 71°
2026-05-06 13:40 38.51447 68.57361 4444 ft 157 kts 71°
2026-05-06 13:40 38.51803 68.58676 4443 ft 157 kts 71°
2026-05-06 13:41 38.52157 68.59991 4440 ft 156 kts 71°
2026-05-06 13:41 38.52509 68.61306 4441 ft 156 kts 71°
2026-05-06 13:41 38.52863 68.62619 4439 ft 156 kts 71°
2026-05-06 13:41 38.53219 68.63931 4440 ft 156 kts 71°
2026-05-06 13:42 38.53573 68.65245 4438 ft 156 kts 71°
2026-05-06 13:42 38.53928 68.66557 4440 ft 156 kts 71°
2026-05-06 13:42 38.54281 68.67871 4432 ft 157 kts 72°
2026-05-06 13:42 38.54378 68.69250 4286 ft 156 kts 91°
2026-05-06 13:43 38.54380 68.70641 4092 ft 156 kts 89°
2026-05-06 13:43 38.54383 68.72027 3888 ft 156 kts 89°
2026-05-06 13:43 38.54384 68.73404 3689 ft 155 kts 89°
2026-05-06 13:43 38.54381 68.74776 3484 ft 154 kts 89°
2026-05-06 13:44 38.54379 68.76144 3294 ft 154 kts 89°
2026-05-06 13:44 38.54382 68.77507 3097 ft 153 kts 89°